SWR3PER LFPG-LSZH

Flight info

Callsign SWR3PER
Flight time 0h 51m
Altitude 31000
Route BUBLI DCT LUVAL DCT OKIPO DCT PEVIT DCT BLM
Aircraft A320/M-SDE3FGHIRWY/LB1

Departure

Time 2026-04-26 06:50
Airport Charles de Gaulle International Airport (LFPG)

Arrival

Time 2026-04-26 07:42
Airport Zürich Airport (LSZH)
Time Latitude Longitude Altitude Speed Heading
2026-04-26 06:14 49.01451 2.54478 354 ft 0 kts 90°
2026-04-26 06:37 49.01451 2.54473 354 ft 3 kts 90°
2026-04-26 06:37 49.01451 2.54433 356 ft 4 kts 96°
2026-04-26 06:37 49.01458 2.54395 361 ft 4 kts 123°
2026-04-26 06:37 49.01476 2.54372 359 ft 3 kts 172°
2026-04-26 06:38 49.01483 2.54370 357 ft 0 kts 174°
2026-04-26 06:40 49.01463 2.54374 358 ft 7 kts 174°
2026-04-26 06:40 49.01414 2.54371 352 ft 8 kts 191°
2026-04-26 06:40 49.01356 2.54341 358 ft 9 kts 201°
2026-04-26 06:41 49.01311 2.54316 355 ft 12 kts 195°
2026-04-26 06:41 49.01243 2.54337 352 ft 8 kts 158°
2026-04-26 06:41 49.01194 2.54263 338 ft 15 kts 264°
2026-04-26 06:41 49.01188 2.54137 345 ft 9 kts 266°
2026-04-26 06:42 49.01186 2.54088 350 ft 3 kts 266°
2026-04-26 06:42 49.01184 2.54047 352 ft 10 kts 266°
2026-04-26 06:42 49.01176 2.53917 357 ft 14 kts 264°
2026-04-26 06:42 49.01198 2.53762 363 ft 16 kts 304°
2026-04-26 06:43 49.01295 2.53649 358 ft 19 kts 338°
2026-04-26 06:43 49.01430 2.53608 354 ft 21 kts 354°
2026-04-26 06:43 49.01556 2.53607 357 ft 19 kts 354°
2026-04-26 06:43 49.01691 2.53588 354 ft 19 kts 356°
2026-04-26 06:44 49.01822 2.53574 355 ft 14 kts 356°
2026-04-26 06:44 49.01862 2.53449 356 ft 17 kts 262°
2026-04-26 06:44 49.01850 2.53263 355 ft 19 kts 267°
2026-04-26 06:44 49.01842 2.53046 354 ft 21 kts 265°
2026-04-26 06:45 49.01829 2.52820 362 ft 20 kts 265°
2026-04-26 06:45 49.01816 2.52617 364 ft 18 kts 265°
2026-04-26 06:45 49.01806 2.52429 354 ft 16 kts 271°
2026-04-26 06:45 49.01883 2.52353 359 ft 12 kts 355°
2026-04-26 06:46 49.01973 2.52342 354 ft 11 kts 356°
2026-04-26 06:46 49.02022 2.52337 360 ft 0 kts 356°
2026-04-26 06:48 49.02023 2.52337 360 ft 1 kts 356°
2026-04-26 06:48 49.02041 2.52335 357 ft 6 kts 356°
2026-04-26 06:49 49.02098 2.52342 354 ft 10 kts 26°
2026-04-26 06:49 49.02125 2.52449 358 ft 15 kts 84°
2026-04-26 06:49 49.02145 2.52807 356 ft 70 kts 84°
2026-04-26 06:49 49.02211 2.53972 353 ft 146 kts 85°
2026-04-26 06:50 49.02310 2.55732 709 ft 176 kts 83°
2026-04-26 06:50 49.02439 2.57612 1618 ft 179 kts 83°
2026-04-26 06:50 49.02543 2.59519 2555 ft 187 kts 85°
2026-04-26 06:50 49.02647 2.61631 3203 ft 213 kts 85°
2026-04-26 06:51 49.02765 2.64018 3951 ft 239 kts 85°
2026-04-26 06:51 49.03034 2.69362 5478 ft 263 kts 84°
2026-04-26 06:51 49.03176 2.72174 6328 ft 268 kts 84°
2026-04-26 06:52 49.03318 2.75035 7143 ft 273 kts 84°
2026-04-26 06:52 49.03459 2.77942 7951 ft 277 kts 84°
2026-04-26 06:52 49.03601 2.80893 8779 ft 281 kts 85°
2026-04-26 06:52 49.03741 2.83892 9574 ft 286 kts 85°
2026-04-26 06:53 49.03882 2.86934 10363 ft 291 kts 85°
2026-04-26 06:53 49.04030 2.90103 10730 ft 311 kts 85°
2026-04-26 06:53 49.04167 2.93527 10946 ft 335 kts 89°
2026-04-26 06:53 49.03827 2.97163 11096 ft 360 kts 107°
2026-04-26 06:54 49.02717 3.00659 11505 ft 372 kts 120°
2026-04-26 06:54 49.01371 3.04061 12150 ft 377 kts 121°
2026-04-26 06:54 49.00011 3.07503 12835 ft 381 kts 121°
2026-04-26 06:54 48.98637 3.10984 13486 ft 386 kts 121°
2026-04-26 06:55 48.97242 3.14516 14116 ft 391 kts 121°
2026-04-26 06:55 48.95831 3.18084 14691 ft 395 kts 121°
2026-04-26 06:55 48.94407 3.21681 15258 ft 399 kts 121°
2026-04-26 06:55 48.92965 3.25311 15830 ft 403 kts 121°
2026-04-26 06:56 48.91506 3.28969 16382 ft 406 kts 121°
2026-04-26 06:56 48.90033 3.32658 16928 ft 410 kts 121°
2026-04-26 06:56 48.88546 3.36381 17461 ft 414 kts 121°
2026-04-26 06:56 48.87047 3.40132 17996 ft 417 kts 121°
2026-04-26 06:57 48.85532 3.43916 18505 ft 421 kts 121°
2026-04-26 06:57 48.84002 3.47730 18972 ft 424 kts 121°
2026-04-26 06:57 48.82541 3.51580 19397 ft 428 kts 115°
2026-04-26 06:57 48.81448 3.55790 19806 ft 431 kts 105°
2026-04-26 06:58 48.80824 3.60237 20234 ft 433 kts 95°
2026-04-26 06:58 48.80530 3.64796 20671 ft 436 kts 94°
2026-04-26 06:58 48.80236 3.69387 21111 ft 439 kts 94°
2026-04-26 06:58 48.79935 3.73999 21540 ft 442 kts 94°
2026-04-26 06:59 48.79626 3.78652 21974 ft 444 kts 94°
2026-04-26 06:59 48.79315 3.83329 22392 ft 447 kts 94°
2026-04-26 06:59 48.79002 3.88034 22799 ft 450 kts 94°
2026-04-26 06:59 48.78683 3.92781 23196 ft 453 kts 94°
2026-04-26 07:00 48.78359 3.97543 23580 ft 456 kts 93°
2026-04-26 07:00 48.78030 4.02345 23943 ft 459 kts 93°
2026-04-26 07:00 48.77697 4.07162 24270 ft 461 kts 94°
2026-04-26 07:00 48.77074 4.11962 24600 ft 466 kts 104°
2026-04-26 07:01 48.75956 4.16600 24938 ft 470 kts 113°
2026-04-26 07:01 48.74370 4.20947 25268 ft 474 kts 122°
2026-04-26 07:01 48.72471 4.25041 25590 ft 476 kts 124°
2026-04-26 07:01 48.70546 4.29135 25904 ft 478 kts 124°
2026-04-26 07:02 48.68617 4.33239 26207 ft 480 kts 124°
2026-04-26 07:02 48.66676 4.37358 26539 ft 480 kts 125°
2026-04-26 07:02 48.64730 4.41471 26865 ft 481 kts 125°
2026-04-26 07:02 48.62779 4.45594 27158 ft 483 kts 125°
2026-04-26 07:03 48.60822 4.49729 27445 ft 485 kts 125°
2026-04-26 07:03 48.58885 4.53828 27716 ft 486 kts 125°
2026-04-26 07:03 48.56918 4.57982 28095 ft 486 kts 125°
2026-04-26 07:03 48.54954 4.62118 28483 ft 484 kts 125°
2026-04-26 07:04 48.52990 4.66245 28928 ft 482 kts 125°
2026-04-26 07:04 48.51030 4.70353 29350 ft 481 kts 125°
2026-04-26 07:04 48.49078 4.74442 29768 ft 480 kts 125°
2026-04-26 07:04 48.47131 4.78519 30219 ft 478 kts 126°
2026-04-26 07:05 48.45196 4.82563 30617 ft 475 kts 126°
2026-04-26 07:05 48.43263 4.86601 30967 ft 474 kts 126°
2026-04-26 07:05 48.41333 4.90621 31189 ft 474 kts 126°
2026-04-26 07:05 48.39397 4.94647 31227 ft 476 kts 126°
2026-04-26 07:06 48.35496 5.02721 31228 ft 477 kts 126°
2026-04-26 07:06 48.31594 5.10785 31224 ft 477 kts 126°
2026-04-26 07:07 48.27693 5.18751 31227 ft 475 kts 128°
2026-04-26 07:07 48.23593 5.26521 31229 ft 474 kts 130°
2026-04-26 07:08 48.19423 5.34172 31227 ft 474 kts 130°
2026-04-26 07:08 48.15274 5.41861 31231 ft 474 kts 129°
2026-04-26 07:09 48.11163 5.49578 31228 ft 474 kts 129°
2026-04-26 07:09 48.07048 5.57290 31226 ft 474 kts 130°
2026-04-26 07:11 47.96749 5.76383 31227 ft 472 kts 130°
2026-04-26 07:11 47.92742 5.84147 31219 ft 473 kts 123°
2026-04-26 07:12 47.90090 5.93109 31015 ft 475 kts 105°
2026-04-26 07:12 47.89342 5.97905 30669 ft 476 kts 103°
2026-04-26 07:12 47.88608 6.02727 30326 ft 478 kts 104°
2026-04-26 07:12 47.87859 6.07574 29938 ft 479 kts 104°
2026-04-26 07:13 47.87103 6.12409 29538 ft 480 kts 104°
2026-04-26 07:13 47.86340 6.17260 29147 ft 481 kts 104°
2026-04-26 07:13 47.85571 6.22119 28769 ft 482 kts 104°
2026-04-26 07:13 47.84800 6.26978 28379 ft 482 kts 104°
2026-04-26 07:14 47.84027 6.31843 28008 ft 483 kts 104°
2026-04-26 07:14 47.83252 6.36706 27632 ft 484 kts 104°
2026-04-26 07:14 47.82475 6.41578 27264 ft 484 kts 104°
2026-04-26 07:14 47.81696 6.46451 26906 ft 484 kts 104°
2026-04-26 07:15 47.80914 6.51327 26552 ft 485 kts 104°
2026-04-26 07:15 47.80131 6.56212 26201 ft 486 kts 104°
2026-04-26 07:15 47.79345 6.61097 25856 ft 486 kts 104°
2026-04-26 07:15 47.78556 6.65993 25521 ft 487 kts 104°
2026-04-26 07:16 47.77765 6.70881 25181 ft 487 kts 104°
2026-04-26 07:16 47.76967 6.75786 24849 ft 485 kts 104°
2026-04-26 07:16 47.76172 6.80663 24519 ft 485 kts 104°
2026-04-26 07:16 47.75376 6.85527 24193 ft 483 kts 104°
2026-04-26 07:17 47.74590 6.90298 23875 ft 481 kts 104°
2026-04-26 07:17 47.73792 6.95112 23515 ft 479 kts 104°
2026-04-26 07:17 47.72996 6.99903 23127 ft 476 kts 104°
2026-04-26 07:17 47.72206 7.04667 22750 ft 473 kts 104°
2026-04-26 07:18 47.71423 7.09407 22384 ft 471 kts 104°
2026-04-26 07:18 47.70645 7.14099 21931 ft 463 kts 104°
2026-04-26 07:18 47.69881 7.18680 21466 ft 452 kts 104°
2026-04-26 07:18 47.69072 7.23147 21011 ft 443 kts 106°
2026-04-26 07:19 47.68192 7.27491 20568 ft 434 kts 107°
2026-04-26 07:19 47.67276 7.31709 20122 ft 426 kts 108°
2026-04-26 07:19 47.66352 7.35842 19649 ft 417 kts 108°
2026-04-26 07:19 47.65451 7.39873 19117 ft 408 kts 108°
2026-04-26 07:20 47.64571 7.43860 18601 ft 404 kts 108°
2026-04-26 07:20 47.63725 7.47756 18028 ft 400 kts 107°
2026-04-26 07:20 47.62884 7.51669 17454 ft 396 kts 107°
2026-04-26 07:20 47.62021 7.55530 16885 ft 393 kts 108°
2026-04-26 07:21 47.61124 7.59394 16316 ft 388 kts 109°
2026-04-26 07:21 47.60259 7.63048 15784 ft 374 kts 109°
2026-04-26 07:21 47.59407 7.66618 15246 ft 361 kts 109°
2026-04-26 07:21 47.58582 7.70073 14714 ft 350 kts 109°
2026-04-26 07:22 47.57786 7.73429 14189 ft 341 kts 109°
2026-04-26 07:22 47.57012 7.76705 13624 ft 333 kts 108°
2026-04-26 07:22 47.56255 7.79907 13050 ft 325 kts 108°
2026-04-26 07:22 47.55517 7.83036 12471 ft 318 kts 108°
2026-04-26 07:23 47.54792 7.86097 11924 ft 312 kts 108°
2026-04-26 07:23 47.54079 7.89103 11373 ft 307 kts 108°
2026-04-26 07:23 47.53378 7.92058 10835 ft 302 kts 108°
2026-04-26 07:23 47.52771 7.95003 10301 ft 296 kts 101°
2026-04-26 07:24 47.52469 7.97938 9745 ft 290 kts 92°
2026-04-26 07:24 47.52465 8.00883 9172 ft 284 kts 83°
2026-04-26 07:24 47.52736 8.03729 8660 ft 276 kts 76°
2026-04-26 07:24 47.53257 8.06442 8162 ft 276 kts 69°
2026-04-26 07:25 47.54039 8.09046 7779 ft 274 kts 60°
2026-04-26 07:25 47.55032 8.11418 7521 ft 268 kts 53°
2026-04-26 07:25 47.56198 8.13529 7282 ft 263 kts 47°
2026-04-26 07:25 47.57666 8.15046 7060 ft 258 kts 16°
2026-04-26 07:26 47.59450 8.15089 6997 ft 260 kts 351°
2026-04-26 07:26 47.61248 8.14944 6987 ft 260 kts 11°
2026-04-26 07:26 47.62883 8.16017 6990 ft 260 kts 40°
2026-04-26 07:26 47.63953 8.18134 6993 ft 259 kts 69°
2026-04-26 07:27 47.64221 8.20758 6996 ft 260 kts 95°
2026-04-26 07:27 47.63958 8.22496 7002 ft 262 kts 111°
2026-04-26 07:27 47.62940 8.24732 6996 ft 265 kts 137°
2026-04-26 07:27 47.61357 8.26115 6998 ft 267 kts 158°
2026-04-26 07:28 47.59045 8.27407 6997 ft 268 kts 158°
2026-04-26 07:28 47.57297 8.28373 6996 ft 268 kts 158°
2026-04-26 07:28 47.55546 8.29341 6995 ft 268 kts 158°
2026-04-26 07:28 47.54366 8.29994 6994 ft 268 kts 158°
2026-04-26 07:29 47.52630 8.31004 6998 ft 267 kts 156°
2026-04-26 07:29 47.50934 8.32131 6994 ft 267 kts 154°
2026-04-26 07:29 47.49277 8.33297 6990 ft 267 kts 153°
2026-04-26 07:29 47.47598 8.34497 6998 ft 268 kts 152°
2026-04-26 07:30 47.45915 8.35697 6983 ft 268 kts 153°
2026-04-26 07:30 47.44239 8.36879 6995 ft 267 kts 154°
2026-04-26 07:30 47.42561 8.38054 6994 ft 267 kts 154°
2026-04-26 07:30 47.40883 8.39221 6984 ft 267 kts 154°
2026-04-26 07:31 47.39200 8.40384 6994 ft 267 kts 154°
2026-04-26 07:31 47.37517 8.41542 6976 ft 267 kts 154°
2026-04-26 07:31 47.35841 8.42700 6837 ft 261 kts 154°
2026-04-26 07:31 47.34238 8.43808 6751 ft 250 kts 154°
2026-04-26 07:32 47.32684 8.44880 6616 ft 244 kts 154°
2026-04-26 07:32 47.31150 8.45935 6488 ft 242 kts 153°
2026-04-26 07:32 47.29643 8.46972 6358 ft 241 kts 153°
2026-04-26 07:32 47.28126 8.48018 6229 ft 241 kts 153°
2026-04-26 07:33 47.26614 8.49060 6106 ft 240 kts 154°
2026-04-26 07:33 47.25105 8.50099 6000 ft 239 kts 154°
2026-04-26 07:33 47.23598 8.51139 6006 ft 239 kts 153°
2026-04-26 07:33 47.22090 8.52176 6001 ft 239 kts 154°
2026-04-26 07:34 47.20585 8.53217 5886 ft 239 kts 151°
2026-04-26 07:34 47.19316 8.54744 5746 ft 234 kts 126°
2026-04-26 07:34 47.18640 8.56839 5619 ft 223 kts 101°
2026-04-26 07:34 47.18604 8.59059 5492 ft 214 kts 78°
2026-04-26 07:35 47.19108 8.61065 5365 ft 208 kts 65°
2026-04-26 07:35 47.19716 8.62970 5247 ft 202 kts 65°
2026-04-26 07:35 47.20294 8.64796 5119 ft 197 kts 65°
2026-04-26 07:35 47.20865 8.66601 5042 ft 192 kts 65°
2026-04-26 07:36 47.21505 8.68292 4999 ft 189 kts 49°
2026-04-26 07:36 47.22562 8.69410 5003 ft 190 kts 21°
2026-04-26 07:36 47.23875 8.69639 5000 ft 194 kts 348°
2026-04-26 07:36 47.25143 8.68920 5007 ft 197 kts 339°
2026-04-26 07:37 47.26394 8.68098 5015 ft 197 kts 338°
2026-04-26 07:37 47.27639 8.67259 5029 ft 197 kts 338°
2026-04-26 07:37 47.28881 8.66412 5012 ft 196 kts 337°
2026-04-26 07:37 47.30120 8.65566 4900 ft 197 kts 338°
2026-04-26 07:38 47.31354 8.64722 4645 ft 193 kts 338°
2026-04-26 07:38 47.32546 8.63906 4378 ft 185 kts 338°
2026-04-26 07:38 47.33693 8.63121 4116 ft 178 kts 339°
2026-04-26 07:38 47.34802 8.62362 3862 ft 174 kts 340°
2026-04-26 07:39 47.35896 8.61613 3605 ft 173 kts 340°
2026-04-26 07:39 47.36977 8.60872 3354 ft 170 kts 340°
2026-04-26 07:39 47.38041 8.60146 3113 ft 167 kts 339°
2026-04-26 07:39 47.39099 8.59431 2912 ft 167 kts 339°
2026-04-26 07:40 47.40140 8.58721 2657 ft 165 kts 338°
2026-04-26 07:40 47.41159 8.57993 2393 ft 160 kts 337°
2026-04-26 07:40 47.42160 8.57328 2156 ft 156 kts 337°
2026-04-26 07:40 47.43136 8.56659 1887 ft 152 kts 335°
2026-04-26 07:41 47.44086 8.55992 1668 ft 151 kts 335°
2026-04-26 07:41 47.45035 8.55338 1454 ft 149 kts 335°
2026-04-26 07:41 47.45888 8.54746 1387 ft 124 kts 335°
2026-04-26 07:41 47.46529 8.54311 1381 ft 77 kts 335°
2026-04-26 07:42 47.46863 8.54082 1383 ft 27 kts 335°
2026-04-26 07:42 47.46998 8.54043 1384 ft 19 kts 36°
2026-04-26 07:42 47.47008 8.54218 1383 ft 21 kts 118°
2026-04-26 07:42 47.46897 8.54351 1383 ft 15 kts 154°
2026-04-26 07:43 47.46768 8.54436 1380 ft 19 kts 161°
2026-04-26 07:43 47.46631 8.54520 1384 ft 25 kts 155°
2026-04-26 07:43 47.46490 8.54616 1385 ft 20 kts 155°
2026-04-26 07:43 47.46350 8.54713 1382 ft 24 kts 155°
2026-04-26 07:44 47.46216 8.54807 1386 ft 21 kts 154°
2026-04-26 07:44 47.46073 8.54906 1387 ft 24 kts 155°
2026-04-26 07:44 47.45957 8.54985 1394 ft 21 kts 155°
2026-04-26 07:44 47.45836 8.55068 1397 ft 21 kts 155°
2026-04-26 07:45 47.45695 8.55165 1400 ft 22 kts 154°
2026-04-26 07:45 47.45574 8.55251 1405 ft 21 kts 155°
2026-04-26 07:45 47.45445 8.55340 1404 ft 10 kts 155°
2026-04-26 07:45 47.45365 8.55394 1405 ft 13 kts 155°
2026-04-26 07:46 47.45355 8.55401 1403 ft 0 kts 155°
2026-04-26 07:46 47.45335 8.55416 1405 ft 3 kts 150°
2026-04-26 07:46 47.45310 8.55471 1408 ft 10 kts 118°
2026-04-26 07:46 47.45278 8.55567 1408 ft 12 kts 105°
2026-04-26 07:47 47.45267 8.55706 1407 ft 13 kts 96°
2026-04-26 07:47 47.45260 8.55806 1407 ft 11 kts 95°
2026-04-26 07:47 47.45319 8.55858 1407 ft 9 kts
2026-04-26 07:47 47.45343 8.55861 1407 ft 0 kts